Tracking 17925 objects as of 19-February-2017
HD Live streaming from Space Station
objects crossing your sky now

SL-8 DEB

Track SL-8 DEB now!
10-day predictions


NORAD ID: 18545
Int'l Code: 1986-100C
Perigee: 882.4 km
Apogee: 903.9 km
Inclination: 82.9 °
Period: 102.7 minutes
Semi major axis: 7264 km
RCS: 0.0131 m2 (small)
Launch date: December 17, 1986
Source: Commonwealth of Independent States (former USSR) (CIS)
Launch site: PLESETSK MISSILE AND SPACE COMPLEX (PKMTR)

Note: This is SATELLITE DEBRIS
Your satellite tracking list
Your tracking list is empty





NASA's NSSDC Master Catalog

Two Line Element Set (TLE):
1 18545U 86100C   17050.06683574  .00000490  00000-0  30908-3 0  9996
2 18545  82.9258 272.4878 0014795 107.6945  46.5774 14.02262225527402
Source of the keplerian elements: AFSPC